| time (UTC) | temp C | wind direction | speed KPH | gust KPH | rain 1hr cm | rain 24hr cm | rain mn cm | humidity % | barometer mb |
| 20260507181555 | 11 | 214 | 24.1 | 32.2 | 0.00 | 0.46 | 0.03 | 86 | 1007.9 |
| 20260507174622 | 11 | 214 | 24.1 | 29.0 | 0.00 | 0.46 | 0.03 | 86 | 1008.0 |
| 20260507173052 | 11 | 220 | 25.7 | 30.6 | 0.00 | 0.46 | 0.03 | 88 | 1008.2 |
| 20260507171605 | 11 | 214 | 22.5 | 29.0 | 0.00 | 0.46 | 0.03 | 89 | 1008.2 |
| 20260507164553 | 11 | 210 | 20.9 | 25.7 | 0.00 | 0.46 | 0.03 | 87 | 1008.6 |
| 20260507163048 | 11 | 207 | 19.3 | 22.5 | 0.00 | 0.46 | 0.03 | 88 | 1008.8 |
| 20260507161551 | 12 | 220 | 11.3 | 17.7 | 0.00 | 0.46 | 0.03 | 82 | 1008.9 |
| 20260507154540 | 11 | 248 | 11.3 | 14.5 | 0.00 | 0.46 | 0.03 | 86 | 1009.3 |
| 20260507153038 | 10 | 258 | 6.4 | 9.7 | 0.00 | 0.46 | 0.03 | 88 | 1009.3 |
| 20260507151536 | 10 | 250 | 8.0 | 11.3 | 0.00 | 0.46 | 0.03 | 88 | 1009.4 |
| 20260507144534 | 10 | 266 | 1.6 | 9.7 | 0.00 | 0.46 | 0.03 | 88 | 1009.1 |
| 20260507143030 | 10 | 315 | 4.8 | 9.7 | 0.00 | 0.46 | 0.03 | 88 | 1009.3 |
| 20260507141528 | 10 | 321 | 9.7 | 14.5 | 0.00 | 0.46 | 0.03 | 87 | 1009.5 |
| 20260507134526 | 9 | 320 | 11.3 | 17.7 | 0.03 | 0.46 | 0.03 | 85 | 1009.2 |
| 20260507133026 | 9 | 316 | 12.9 | 19.3 | 0.03 | 0.46 | 0.03 | 85 | 1009.5 |
| 20260507131623 | 9 | 339 | 11.3 | 19.3 | 0.03 | 0.46 | 0.03 | 86 | 1009.4 |
| 20260507124521 | 8 | 331 | 12.9 | 20.9 | 0.00 | 0.43 | 0.00 | 89 | 1009.5 |
| 20260507123023 | 8 | 331 | 16.1 | 30.6 | 0.00 | 0.43 | 0.43 | 88 | 1009.7 |
| 20260507121515 | 9 | 321 | 14.5 | 25.7 | 0.00 | 0.43 | 0.43 | 88 | 1009.5 |
| 20260507114514 | 9 | 335 | 25.7 | 35.4 | 0.00 | 0.43 | 0.43 | 89 | 1009.3 |
| 20260507113021 | 9 | 313 | 25.7 | 35.4 | 0.00 | 0.43 | 0.43 | 89 | 1009.3 |
| 20260507111512 | 10 | 302 | 29.0 | 37.0 | 0.00 | 0.43 | 0.43 | 90 | 1009.5 |
| 20260507104507 | 10 | 326 | 16.1 | 22.5 | 0.00 | 0.43 | 0.43 | 95 | 1008.3 |
| 20260507103006 | 10 | 327 | 24.1 | 32.2 | 0.05 | 0.43 | 0.43 | 93 | 1008.6 |
| 20260507101506 | 10 | 359 | 22.5 | 35.4 | 0.20 | 0.43 | 0.43 | 95 | 1008.2 |
| 20260507094504 | 10 | 314 | 19.3 | 29.0 | 0.30 | 0.43 | 0.43 | 97 | 1007.5 |
| 20260507093003 | 11 | 308 | 17.7 | 29.0 | 0.30 | 0.41 | 0.41 | 98 | 1007.4 |
| 20260507091501 | 10 | 295 | 11.3 | 17.7 | 0.15 | 0.25 | 0.25 | 98 | 1007.9 |
| 20260507084603 | 10 | 252 | 9.7 | 20.9 | 0.05 | 0.13 | 0.13 | 98 | 1007.6 |
| 20260507083058 | 10 | 241 | 19.3 | 35.4 | 0.03 | 0.10 | 0.10 | 97 | 1007.8 |
| 20260507081555 | 10 | 249 | 14.5 | 20.9 | 0.03 | 0.10 | 0.10 | 98 | 1007.6 |
| 20260507074554 | 10 | 233 | 6.4 | 12.9 | 0.00 | 0.08 | 0.08 | 97 | 1006.7 |
| 20260507073057 | 10 | 205 | 11.3 | 12.9 | 0.00 | 0.08 | 0.08 | 97 | 1006.8 |
| 20260507071551 | 10 | 206 | 11.3 | 16.1 | 0.00 | 0.08 | 0.08 | 97 | 1007.0 |
| 20260507064550 | 11 | 229 | 14.5 | 19.3 | 0.00 | 0.08 | 0.08 | 97 | 1007.3 |
| 20260507063053 | 11 | 236 | 11.3 | 16.1 | 0.00 | 0.08 | 0.08 | 97 | 1007.1 |
| 20260507061546 | 11 | 244 | 12.9 | 20.9 | 0.00 | 0.08 | 0.08 | 97 | 1007.3 |
| 20260507054544 | 11 | 237 | 9.7 | 17.7 | 0.00 | 0.08 | 0.08 | 97 | 1008.1 |
| 20260507053044 | 11 | 218 | 8.0 | 19.3 | 0.00 | 0.08 | 0.08 | 97 | 1007.8 |
| 20260507051542 | 11 | 214 | 12.9 | 22.5 | 0.00 | 0.08 | 0.08 | 97 | 1008.1 |
| 20260507044550 | 11 | 216 | 20.9 | 32.2 | 0.00 | 0.08 | 0.08 | 97 | 1008.3 |
| 20260507043037 | 11 | 215 | 20.9 | 30.6 | 0.00 | 0.08 | 0.08 | 96 | 1008.3 |
| 20260507041535 | 12 | 212 | 14.5 | 25.7 | 0.00 | 0.08 | 0.08 | 96 | 1008.4 |
| 20260507034539 | 12 | 229 | 19.3 | 35.4 | 0.00 | 0.08 | 0.08 | 97 | 1008.7 |
| 20260507033041 | 12 | 230 | 20.9 | 33.8 | 0.00 | 0.08 | 0.08 | 96 | 1008.7 |
| 20260507031535 | 12 | 212 | 29.0 | 41.8 | 0.00 | 0.08 | 0.08 | 96 | 1008.5 |
| 20260507024535 | 12 | 229 | 20.9 | 32.2 | 0.00 | 0.08 | 0.08 | 96 | 1008.6 |
| 20260507023029 | 12 | 221 | 25.7 | 37.0 | 0.00 | 0.08 | 0.08 | 95 | 1008.8 |
| 20260507021544 | 12 | 219 | 25.7 | 35.4 | 0.00 | 0.08 | 0.08 | 95 | 1009.2 |
| 20260507014526 | 12 | 214 | 29.0 | 41.8 | 0.00 | 0.08 | 0.08 | 95 | 1009.4 |
| 20260507013032 | 12 | 224 | 29.0 | 41.8 | 0.00 | 0.08 | 0.08 | 95 | 1009.4 |
| 20260507011530 | 12 | 217 | 32.2 | 46.7 | 0.00 | 0.08 | 0.08 | 95 | 1009.4 |
| 20260507004524 | 13 | 217 | 38.6 | 53.1 | 0.00 | 0.08 | 0.08 | 95 | 1009.3 |
| 20260507003023 | 12 | 220 | 25.7 | 40.2 | 0.00 | 0.08 | 0.08 | 96 | 1009.4 |
| 20260507001523 | 12 | 233 | 29.0 | 40.2 | 0.00 | 0.08 | 0.08 | 95 | 1009.5 |
| 20260506234520 | 13 | 205 | 37.0 | 54.7 | 0.05 | 0.08 | 0.08 | 94 | 1009.3 |
| 20260506233019 | 13 | 217 | 29.0 | 41.8 | 0.05 | 0.08 | 0.08 | 95 | 1009.1 |
| 20260506231523 | 12 | 215 | 37.0 | 51.5 | 0.05 | 0.08 | 0.08 | 94 | 1009.2 |
| 20260506224516 | 12 | 210 | 33.8 | 46.7 | 0.03 | 0.03 | 0.03 | 93 | 1009.8 |
| 20260506223017 | 13 | 198 | 35.4 | 48.3 | 0.03 | 0.03 | 0.03 | 92 | 1009.9 |
| 20260506221511 | 13 | 214 | 38.6 | 57.9 | 0.03 | 0.03 | 0.03 | 89 | 1010.0 |
| 20260506214511 | 14 | 208 | 33.8 | 43.5 | 0.00 | 0.00 | 0.00 | 88 | 1009.9 |
| 20260506213007 | 13 | 198 | 35.4 | 43.5 | 0.00 | 0.00 | 0.00 | 88 | 1010.0 |
| 20260506211505 | 14 | 204 | 35.4 | 46.7 | 0.00 | 0.00 | 0.00 | 87 | 1010.1 |
| 20260506204505 | 14 | 179 | 35.4 | 46.7 | 0.00 | 0.00 | 0.00 | 86 | 1010.1 |
| 20260506203103 | 14 | 180 | 37.0 | 46.7 | 0.00 | 0.00 | 0.00 | 86 | 1010.4 |
| 20260506201507 | 14 | 188 | 40.2 | 51.5 | 0.00 | 0.00 | 0.00 | 86 | 1010.3 |
| 20260506194623 | 14 | 185 | 37.0 | 49.9 | 0.00 | 0.00 | 0.00 | 86 | 1010.7 |
| 20260506193059 | 14 | 213 | 35.4 | 48.3 | 0.00 | 0.00 | 0.00 | 86 | 1011.1 |
| 20260506191600 | 14 | 205 | 37.0 | 53.1 | 0.00 | 0.00 | 0.00 | 85 | 1011.0 |
| 20260506190203 | 14 | 189 | 38.6 | 51.5 | 0.00 | 0.00 | 0.00 | 85 | 1010.9 |
| 20260506184605 | 14 | 195 | 40.2 | 54.7 | 0.00 | 0.00 | 0.00 | 85 | 1011.1 |
| 20260506183103 | 14 | 202 | 38.6 | 49.9 | 0.00 | 0.00 | 0.00 | 85 | 1011.6 |